TimeAKST,TemperatureF,Dew PointF,Humidity,Sea Level PressureIn,VisibilityMPH,Wind Direction,Wind SpeedMPH,Gust SpeedMPH,PrecipitationIn,Events,Conditions,WindDirDegrees,DateUTC
12:54 AM,-5.8,-11.2,77,29.47,10.0,North,8.1,-,N/A,,Overcast,10,2012-12-14 09:54:00
1:55 AM,-2.7,-7.2,81,29.46,10.0,North,4.6,-,0.00,,Overcast,350,2012-12-14 10:55:00
2:26 AM,-5.8,-9.4,84,29.46,9.0,North,3.5,-,N/A,Snow,Light Snow,10,2012-12-14 11:26:00
2:31 AM,-5.8,-9.4,84,29.46,8.0,North,4.6,-,N/A,Snow,Light Snow,10,2012-12-14 11:31:00
2:55 AM,-4.2,-8.7,81,29.46,10.0,Calm,Calm,-,0.00,,Mostly Cloudy,0,2012-12-14 11:55:00
3:54 AM,68.0,-7.6,5,29.45,10.0,North,5.8,-,N/A,,Mostly Cloudy,350,2012-12-14 12:54:00
3:55 AM,-4.0,-7.6,85,29.45,10.0,North,5.8,-,N/A,,Mostly Cloudy,350,2012-12-14 12:55:00
4:55 AM,-5.6,-10.3,80,29.44,10.0,Calm,Calm,-,N/A,,Overcast,0,2012-12-14 13:55:00
5:55 AM,-4.9,-9.8,80,29.44,7.0,Calm,Calm,-,0.00,Snow,Light Snow,0,2012-12-14 14:55:00
6:55 AM,-6.3,-11.2,79,29.43,5.0,SSE,4.6,-,0.00,Snow,Light Snow,150,2012-12-14 15:55:00
7:01 AM,-5.8,-11.2,77,29.43,5.0,Calm,Calm,-,N/A,Snow,Light Snow,0,2012-12-14 16:01:00
7:20 AM,-5.8,-11.2,77,29.43,7.0,Calm,Calm,-,N/A,,Mostly Cloudy,0,2012-12-14 16:20:00
7:33 AM,-5.8,-11.2,77,29.43,6.0,Calm,Calm,-,N/A,Snow,Light Snow,0,2012-12-14 16:33:00
7:46 AM,-5.8,-11.2,77,29.43,5.0,Calm,Calm,-,N/A,Snow,Light Snow,0,2012-12-14 16:46:00
7:55 AM,-5.6,-10.5,79,29.43,5.0,Calm,Calm,-,0.00,Snow,Light Snow,0,2012-12-14 16:55:00
8:12 AM,-5.8,-9.4,84,29.42,3.0,Calm,Calm,-,N/A,Snow,Light Snow,0,2012-12-14 17:12:00
8:18 AM,-5.8,-9.4,84,29.42,3.0,Calm,Calm,-,N/A,Snow,Light Snow,0,2012-12-14 17:18:00
8:31 AM,-4.0,-9.4,78,29.43,3.0,Calm,Calm,-,N/A,,Overcast,0,2012-12-14 17:31:00
8:55 AM,-5.8,-10.7,79,29.43,3.0,Calm,Calm,-,0.00,Snow,Light Snow,0,2012-12-14 17:55:00
9:22 AM,-5.8,-11.2,77,29.43,7.0,SSE,3.5,-,N/A,,Mostly Cloudy,150,2012-12-14 18:22:00
9:55 AM,-5.3,-10.1,80,29.43,3.0,SSE,4.6,-,0.00,Snow,Light Snow,160,2012-12-14 18:55:00
9:59 AM,-5.8,-9.4,84,29.43,3.0,SSE,4.6,-,N/A,Snow,Light Snow,160,2012-12-14 18:59:00
10:21 AM,-5.8,-11.2,77,29.43,5.0,SSE,4.6,-,N/A,Snow,Light Snow,160,2012-12-14 19:21:00
10:55 AM,-5.8,-10.8,79,29.45,5.0,South,3.5,-,0.00,Snow,Light Snow,180,2012-12-14 19:55:00
11:55 AM,-8.1,-13.4,78,29.43,7.0,Calm,Calm,-,0.00,,Scattered Clouds,0,2012-12-14 20:55:00
12:55 PM,-5.8,-10.7,79,29.42,5.0,Calm,Calm,-,0.00,Snow,Light Snow,0,2012-12-14 21:55:00
1:55 PM,-5.8,-10.7,79,29.42,7.0,SSE,3.5,-,0.00,,Scattered Clouds,160,2012-12-14 22:55:00
2:55 PM,-7.1,-11.9,79,29.42,5.0,SSE,3.5,-,0.00,Snow,Light Snow,160,2012-12-14 23:55:00
3:55 PM,-5.6,-10.5,79,29.42,4.0,Calm,Calm,-,0.00,Snow,Light Snow,0,2012-12-15 00:55:00
4:05 PM,-5.8,-11.2,77,29.42,4.0,Calm,Calm,-,N/A,Snow,Light Snow,0,2012-12-15 01:05:00
4:55 PM,-6.0,-10.8,79,29.42,4.0,Calm,Calm,-,0.00,Snow,Light Snow,0,2012-12-15 01:55:00
5:55 PM,-9.0,-14.1,79,29.43,4.0,Calm,Calm,-,N/A,Snow,Light Snow,0,2012-12-15 02:55:00
6:55 PM,-10.8,-16.2,77,29.43,5.0,Calm,Calm,-,0.00,Snow,Light Snow,0,2012-12-15 03:55:00
7:55 PM,-10.3,-15.7,77,29.47,8.0,Calm,Calm,-,0.00,Snow,Light Snow,0,2012-12-15 04:55:00
8:55 PM,-12.5,-17.9,77,29.44,10.0,Calm,Calm,-,N/A,,Scattered Clouds,0,2012-12-15 05:55:00
9:55 PM,-16.6,-22.4,75,29.45,10.0,Calm,Calm,-,N/A,,Scattered Clouds,0,2012-12-15 06:55:00
10:55 PM,-17.0,-22.9,74,29.47,10.0,Calm,Calm,-,0.00,,Overcast,0,2012-12-15 07:55:00
10:56 PM,-16.6,-23.8,70,29.47,10.0,Calm,Calm,-,N/A,,Overcast,0,2012-12-15 07:56:00
10:59 PM,-16.6,-22.0,76,29.47,10.0,Calm,Calm,-,N/A,,Overcast,0,2012-12-15 07:59:00
11:02 PM,-16.6,-22.0,76,29.47,9.0,Calm,Calm,-,N/A,,Overcast,0,2012-12-15 08:02:00
11:05 PM,-16.6,-22.0,76,29.47,8.0,Calm,Calm,-,N/A,,Overcast,0,2012-12-15 08:05:00
11:07 PM,-16.6,-23.8,70,29.47,7.0,Calm,Calm,-,N/A,,Overcast,0,2012-12-15 08:07:00
11:14 PM,-16.6,-22.0,76,29.47,6.0,Calm,Calm,-,N/A,Snow,Light Snow,0,2012-12-15 08:14:00
11:23 PM,-16.6,-22.0,76,29.47,6.0,Calm,Calm,-,N/A,Snow,Light Snow,0,2012-12-15 08:23:00
11:26 PM,-16.6,-22.0,76,29.47,7.0,Calm,Calm,-,N/A,Snow,Light Snow,0,2012-12-15 08:26:00
11:36 PM,-16.6,-22.0,76,29.47,7.0,Calm,Calm,-,N/A,Snow,Light Snow,0,2012-12-15 08:36:00
11:47 PM,-16.6,-22.0,76,29.48,7.0,Calm,Calm,-,N/A,Snow,Light Snow,0,2012-12-15 08:47:00
11:48 PM,-16.6,-22.0,76,29.48,7.0,Calm,Calm,-,N/A,Snow,Light Snow,0,2012-12-15 08:48:00
11:52 PM,-16.6,-22.0,76,29.48,9.0,Calm,Calm,-,N/A,Snow,Light Snow,0,2012-12-15 08:52:00
11:55 PM,-16.2,-22.0,75,29.48,9.0,Calm,Calm,-,0.00,,Overcast,0,2012-12-15 08:55:00